Location: Garfield Township Fire Department Station 1
(38.0587°N, 100.2797°W)
Time: 02:17:53
(UTC+00:00)

Daily predictions for brighter satellites

Satellite Brightness Start Highest point End
(mag) Time Altitude Azimuth Time Altitude Azimuth Time Altitude Azimuth
ARGOS 3.9 00:54:59 10° SE 00:59:42 32° ENE 01:04:26 10° N
BREEZE-M DEB (TANK) 4.1 00:59:04 10° NNW 00:59:58 11° N 01:00:59 10° NNE
Cosmos 2263 Rocket 2.1 00:54:45 10° NNW 01:00:19 72° ENE 01:05:52 10° SSE
PSLV R/B 4.2 00:57:47 10° NNE 01:01:41 43° E 01:05:32 10° S
Cosmos 2181 Rocket 4.3 00:57:04 10° N 01:03:31 78° W 01:09:51 10° S
Cosmos 1437 2.7 01:05:45 10° NNW 01:08:38 75° W 01:11:30 10° S
Cosmos 1271 Rocket 2.6 01:06:10 10° N 01:09:54 73° E 01:13:39 10° SSE
ERS-2 2.5 01:06:53 10° NNE 01:10:23 42° E 01:13:51 10° S
Cosmos 1992 Rocket 4.2 01:05:55 10° S 01:10:58 51° ESE 01:16:02 10° NNE
Meteor 1-20 Rocket 4.1 01:05:47 10° S 01:11:13 83° E 01:16:43 10° N
Abrixas rocket 4.3 01:10:07 10° NW 01:11:15 12° NNW 01:12:22 10° NNE
Cosmos 1666 Rocket 3.6 01:08:41 10° S 01:13:01 86° W 01:17:22 10° N
SAR-Lupe-1 4.3 01:11:38 10° NNE 01:15:06 45° E 01:18:32 10° S
CZ-2C R/B 3.1 01:10:27 10° NNE 01:15:31 38° E 01:20:26 10° SSE
Cosmos 1602 3.7 01:12:14 10° S 01:16:04 71° E 01:19:58 10° NNE
Cosmos 968 Rocket 3.6 01:13:17 10° N 01:18:27 54° ENE 01:23:34 10° SE
APEX 2.2 01:15:49 10° NNW 01:18:33 62° ENE 01:21:14 10° SSE
Cosmos 1486 Rocket 4.3 01:13:49 10° N 01:18:55 47° ENE 01:24:02 10° SE
Cosmos 1862 Rocket 3.8 01:15:14 10° N 01:19:35 48° E 01:23:54 10° SSE
H-2A R/B 2.1 01:14:17 10° SSE 01:19:40 71° ENE 01:25:07 10° N
IRS-1C Rocket 4.1 01:14:30 10° SSE 01:19:46 86° ENE 01:25:04 10° NNW
Cosmos 1500 3.6 01:23:08 10° SSE 01:26:36 38° E 01:30:05 10° NNE
SeaSat 1 2.4 01:22:16 10° NNE 01:27:12 67° ESE 01:32:04 10° SSW
HJ-1C 3.7 01:24:04 10° SSE 01:27:13 43° ENE 01:30:23 10° N
YAOGAN 1 2.5 01:25:15 10° SSE 01:29:33 81° ENE 01:33:54 10° N
CSL-04 Rocket 3.9 01:25:35 10° SE 01:30:53 48° ENE 01:36:10 10° N
CSL-04 Debris 4.3 01:26:07 10° SE 01:31:21 52° ENE 01:36:38 10° N
IRIS 4.0 01:30:29 10° WNW 01:33:36 58° N 01:34:46 26° E
GP-B 3.6 01:30:09 10° SSE 01:34:11 36° E 01:38:14 10° NNE
Lacrosse 4 Rocket 3.2 01:31:38 10° SE 01:33:25 15° ESE 01:33:25 15° ESE
Meteor 2-12 Rocket 4.4 01:28:50 10° S 01:34:48 67° E 01:40:51 10° NNE
Cosmos 1844 Rocket 3.5 01:30:43 10° N 01:35:32 29° ENE 01:38:45 17° ESE
Helios 1A Rocket 2.9 01:35:04 10° SSE 01:39:02 57° ENE 01:43:01 10° N
CZ-4B R/B 4.4 01:39:24 10° NNW 01:41:26 17° WNW 01:43:28 10° WSW
Cosmos 2360 Rocket 2.1 01:38:44 10° SSW 01:44:20 73° ESE 01:50:00 10° NNE
Cosmos 1354 Rocket 4.5 01:40:06 10° N 01:45:01 39° ENE 01:48:34 17° SE
Meteor 1-19 Rocket 4.3 01:42:08 10° N 01:48:05 86° E 01:53:49 10° S
SJ-6B 4.1 01:50:52 24° ENE 01:50:52 24° ENE 01:53:50 10° NNE
Cosmos 2333 Rocket 2.8 01:47:03 10° SSE 01:52:05 34° ESE 01:57:11 10° NE
USA 234 3.2 01:47:30 10° NE 01:54:04 86° SE 02:00:38 10° SW
Meteor 2-4 Rocket 3.8 01:49:50 10° N 01:55:37 58° ENE 02:01:26 10° SSE
Cosmos 1503 Rocket 4.0 01:50:37 10° N 01:55:44 57° ENE 01:59:55 15° SE
CZ-3 Stage 3 3.4 01:51:45 10° WSW 01:55:51 23° SSW 01:56:51 19° SSE
Nadezhda 3 Rocket 4.1 01:49:52 10° N 01:56:16 85° W 02:02:37 10° S
Cosmos 2154 Rocket 4.4 01:50:56 10° SSW 01:57:05 66° W 02:03:15 10° N
Okean 1-7 3.4 01:53:54 10° N 01:58:00 39° ENE 01:59:14 32° ESE
Ariane Rocket 3.8 02:00:11 28° ENE 02:00:34 29° ENE 02:04:54 10° N
DELTA 2 R/B (1) 4.3 01:56:02 10° SSW 02:00:59 34° SSE 02:02:31 29° ESE
Cosmos 44 Rocket 3.4 01:58:13 10° NNW 02:03:29 88° NE 02:07:22 18° SSE
CZ-4 R/B 3.4 02:02:03 10° SSW 02:05:23 28° W 02:08:45 10° NW
Cosmos 1869 Rocket 4.1 02:01:38 10° SSE 02:06:28 36° ENE 02:09:47 10° NNE
Okean 1 4.4 02:02:35 10° NNW 02:06:28 47° W 02:10:20 10° SSW
Okean-O 4.2 02:05:37 10° SSW 02:09:42 37° W 02:13:50 10° NNW
Cosmos 2322 Rocket 3.8 02:08:56 10° SW 02:14:01 35° WNW 02:19:08 10° N
ATLAS CENTAUR R/B 2.8 02:18:36 10° WSW 02:21:52 31° NW 02:24:39 13° N
COSMOS 2428 2.9 02:16:34 10° S 02:21:48 45° ESE 02:21:48 45° ESE
SL-4 R/B 4.2 02:22:00 10° N 02:22:53 12° N 02:22:53 12° N
Meteor 1-11 Rocket 3.7 02:18:37 10° S 02:24:15 59° E 02:29:49 10° NNE
Aureole 2 Rocket 4.1 02:22:14 10° NW 02:23:20 21° NW 02:23:20 21° NW
Cosmos 2084 Rocket 3.5 02:23:58 10° NW 02:28:22 81° WSW 02:29:07 61° SSE
SL-8 Rocket 3.9 02:24:07 10° S 02:30:23 90° ENE 02:36:37 10° N
Cosmos 2219 Rocket 2.0 02:26:27 10° S 02:31:57 67° ESE 02:34:09 37° NE
MetOp-A 4.1 02:33:28 22° S 02:36:58 82° WSW 02:42:21 10° NNW
IRS-1A Rocket 4.1 02:38:13 60° ESE 02:39:02 70° ENE 02:44:37 10° N
BREEZE-M DEB (TANK) 3.8 02:36:08 10° W 02:39:52 26° NNW 02:40:04 25° NNW
Meteor 1-13 Rocket 4.2 02:36:01 10° N 02:41:59 76° E 02:43:08 58° SSE
Cosmos 1666 3.9 02:39:51 10° SSW 02:43:21 40° W 02:46:55 10° N
Cosmos 2366 rocket 3.9 02:38:38 10° S 02:44:55 87° W 02:51:19 10° N
Cosmos 1703 Rocket 4.2 02:40:56 10° NNW 02:45:12 52° W 02:46:42 35° SSW
Cosmos 2322 4.0 02:44:04 10° SSW 02:49:45 68° WNW 02:55:28 10° NNE
Resurs 01 Rocket 4.2 02:57:08 11° N 02:57:08 11° N 02:57:15 10° N
ASTEX 1 3.6 02:49:56 10° N 02:54:18 66° NW 02:54:18 66° NW
Cosmos 1727 Rocket 4.2 03:04:54 10° N 03:09:49 59° N 03:09:49 59° N
Lacrosse 4 Rocket 3.6 03:08:15 10° SW 03:09:53 21° WSW 03:09:53 21° WSW
Cosmos 1844 Rocket 3.9 03:14:23 10° NW 03:19:26 36° WSW 03:20:29 33° SW
Cosmos 2278 Rocket 4.2 03:30:05 10° NNW 03:31:48 20° N 03:31:48 20° N
Cosmos 2333 Rocket 3.8 03:31:18 10° WSW 03:36:19 32° WNW 03:41:00 12° N
SL-16 R/B 4.2 09:47:15 19° NNE 09:49:33 24° NE 09:54:01 10° ESE
ALOS 4.4 10:08:13 10° NE 10:11:54 23° E 10:11:55 23° E
USA 234 4.5 10:17:26 10° SE 10:20:20 28° SSE 10:20:20 28° SSE
Cosmos 1553 Rocket 4.2 10:28:27 69° NNE 10:28:27 69° NNE 10:33:58 10° N
Milstar 3 Cent rocket 3.9 10:38:53 18° SSE 10:38:53 18° SSE 10:41:03 10° ESE
CZ-3 R/B 4.4 10:26:34 21° SSW 10:38:27 32° S 10:46:43 10° ESE
Cosmos 2360 Rocket 4.2 10:34:46 10° N 10:39:30 26° ENE 10:44:12 10° ESE
ATLAS CENTAUR R/B 4.0 10:50:00 13° SSE 10:50:00 13° SSE 10:50:29 10° SSE
Cosmos 2082 Rocket 4.4 10:55:20 12° NNW 10:55:20 12° NNW 10:56:07 10° NNW
SeaSat 1 4.0 10:54:46 10° ESE 10:59:10 34° ENE 11:03:35 10° N
Cosmos 1743 Rocket 4.5 10:56:17 10° N 11:00:39 49° E 11:04:58 10° SSE
Cosmos 1606 4.2 10:59:27 21° SE 11:01:25 36° E 11:05:00 10° NNE
Geosat 4.4 10:57:58 10° NNE 11:02:04 50° NNW 11:02:04 50° NNW
Meteor 2-2 Rocket 4.2 11:04:35 46° SSW 11:06:27 77° W 11:12:30 10° N
Meteor 1-4 Rocket 4.5 11:09:41 22° N 11:09:41 22° N 11:11:07 10° N
Lacrosse 5 4.3 11:04:20 10° NNW 11:07:28 16° NNE 11:10:35 10° ENE
Cosmos 2322 Rocket 2.2 11:03:51 10° NNW 11:09:32 81° ENE 11:15:13 10° SSE
CZ-2C R/B 3.7 11:09:53 10° N 11:12:11 25° NNW 11:12:11 25° NNW
S3M 3.9 11:12:33 44° SW 11:14:22 62° W 11:20:28 10° N
Cosmos 2221 3.8 11:17:11 29° NNW 11:17:11 29° NNW 11:19:32 10° N
Cosmos 2344 3.4 11:14:44 35° SW 11:18:09 72° NW 11:25:50 10° NNE
USA 276 3.3 11:24:30 37° SE 11:24:39 37° SE 11:27:38 10° ENE
Cosmos 1745 Rocket 4.0 11:19:01 10° NNW 11:25:12 60° W 11:31:24 10° S
Delta 2 Rocket 4.4 11:24:26 38° SSW 11:25:51 49° SSE 11:31:02 10° E
Cosmos 2219 Rocket 4.4 11:22:13 10° N 11:26:47 24° ENE 11:31:19 10° ESE
ASTRO E2 3.9 11:26:57 29° S 11:26:57 29° S 11:30:19 10° SE
ADEOS 3.8 11:21:43 10° NNE 11:26:56 69° ESE 11:32:07 10° S
CZ-4C R/B 3.8 11:24:36 10° S 11:28:32 28° ESE 11:33:00 10° NE
Sich 1 4.4 11:27:21 10° N 11:31:33 41° ENE 11:35:41 10° SSE
Meteor 1-31 Rocket 3.0 11:27:50 10° NNE 11:31:43 67° ESE 11:35:31 10° S
SL-16 R/B 2.3 11:29:25 15° NW 11:33:52 48° WSW 11:39:16 10° S
MOS 1 Rocket 4.1 11:32:52 10° SSE 11:37:00 48° ENE 11:41:16 10° N
Cosmos 1709 Rocket 4.0 11:31:25 10° N 11:37:49 85° W 11:44:12 10° S
Cosmos 1500 Rocket 3.5 11:33:46 10° NNW 11:38:03 60° W 11:42:21 10° S
Lacrosse 4 Rocket 2.9 11:34:10 10° NNW 11:38:24 40° ENE 11:42:31 10° SE
Cosmos 1992 Rocket 4.1 11:34:36 10° NNW 11:39:49 75° ENE 11:45:01 10° SSE
CBERS 1 LM4 rocket 4.5 11:38:25 10° N 11:43:03 49° WNW 11:45:56 21° SW
H-2A R/B 1.9 11:39:52 10° S 11:44:08 64° WSW 11:48:21 10° NNW
SKYMED 2 4.3 11:40:17 10° SSE 11:44:31 56° ENE 11:48:47 10° N
H-2A R/B 4.3 11:41:01 10° NNE 11:44:37 37° E 11:48:12 10° SSE
X-37B 0.9 11:48:06 44° SW 11:48:15 44° SSW 11:51:16 10° SE
ALOS 3.0 11:45:10 10° N 11:49:18 32° WNW 11:50:27 29° W
Cosmos 1833 4.3 11:46:59 18° SW 11:51:09 54° WNW 11:56:41 10° NNE
H-2A R/B 3.5 11:40:26 21° WSW 11:51:56 57° S 11:56:30 10° ESE
Cosmos 2237 4.2 11:47:02 10° NNW 11:52:42 65° WSW 11:58:19 10° S
Cosmos 1484 Rocket 3.8 11:52:21 10° NNW 11:55:02 25° WNW 11:55:02 25° WNW
